| time (UTC) | temp F | wind direction | speed MPH | gust MPH | rain 1hr in | rain 24hr in | rain mn in | humidity % | barometer mb |
| 20260506211521 | 61 | 191 | 3.0 | 7.0 | 0.02 | 0.02 | 0.02 | 89 | 1006.1 |
| 20260506210055 | 61 | 177 | 4.0 | 9.0 | 0.01 | 0.01 | 0.01 | 89 | 1006.2 |
| 20260506204552 | 62 | 202 | 3.0 | 9.0 | 0.00 | 0.00 | 0.00 | 87 | 1006.1 |
| 20260506203039 | 63 | 169 | 3.0 | 7.0 | 0.00 | 0.00 | 0.00 | 85 | 1006.1 |
| 20260506201536 | 63 | 222 | 3.0 | 10.0 | 0.00 | 0.00 | 0.00 | 82 | 1006.0 |
| 20260506200040 | 64 | 166 | 5.0 | 8.0 | 0.00 | 0.00 | 0.00 | 81 | 1005.9 |
| 20260506194529 | 65 | 202 | 4.0 | 9.0 | 0.00 | 0.00 | 0.00 | 78 | 1006.0 |
| 20260506193027 | 68 | 167 | 5.0 | 15.0 | 0.00 | 0.00 | 0.00 | 71 | 1006.2 |
| 20260506191522 | 68 | 222 | 7.0 | 15.0 | 0.00 | 0.00 | 0.00 | 70 | 1006.0 |
| 20260506190021 | 68 | 196 | 3.0 | 8.0 | 0.00 | 0.00 | 0.00 | 70 | 1006.2 |
| 20260506184521 | 68 | 165 | 5.0 | 15.0 | 0.00 | 0.00 | 0.00 | 67 | 1005.9 |
| 20260506183004 | 71 | 169 | 7.0 | 17.0 | 0.00 | 0.00 | 0.00 | 60 | 1005.9 |
| 20260506181501 | 71 | 175 | 6.0 | 14.0 | 0.00 | 0.00 | 0.00 | 60 | 1006.2 |
| 20260506180043 | 71 | 208 | 7.0 | 18.0 | 0.00 | 0.00 | 0.00 | 60 | 1006.3 |
| 20260506174541 | 71 | 198 | 7.0 | 19.0 | 0.00 | 0.00 | 0.00 | 62 | 1006.3 |
| 20260506173024 | 71 | 154 | 10.0 | 17.0 | 0.00 | 0.00 | 0.00 | 61 | 1006.5 |
| 20260506171524 | 70 | 167 | 8.0 | 15.0 | 0.00 | 0.00 | 0.00 | 62 | 1006.6 |
| 20260506170002 | 70 | 162 | 9.0 | 13.0 | 0.00 | 0.00 | 0.00 | 63 | 1006.7 |
| 20260506164503 | 70 | 167 | 9.0 | 17.0 | 0.00 | 0.00 | 0.00 | 62 | 1006.9 |
| 20260506163107 | 72 | 173 | 7.0 | 16.0 | 0.00 | 0.00 | 0.00 | 59 | 1007.1 |
| 20260506161544 | 72 | 234 | 7.0 | 17.0 | 0.00 | 0.00 | 0.00 | 58 | 1007.3 |
| 20260506160050 | 71 | 183 | 6.0 | 12.0 | 0.00 | 0.00 | 0.00 | 60 | 1007.6 |
| 20260506154526 | 71 | 238 | 7.0 | 18.0 | 0.00 | 0.00 | 0.00 | 60 | 1008.1 |
| 20260506153025 | 71 | 227 | 6.0 | 19.0 | 0.00 | 0.00 | 0.00 | 60 | 1008.3 |
| 20260506151508 | 70 | 194 | 9.0 | 21.0 | 0.00 | 0.00 | 0.00 | 63 | 1008.3 |
| 20260506150008 | 70 | 223 | 8.0 | 18.0 | 0.00 | 0.00 | 0.00 | 63 | 1008.5 |
| 20260506144552 | 69 | 212 | 8.0 | 17.0 | 0.00 | 0.00 | 0.00 | 64 | 1008.4 |
| 20260506143050 | 69 | 229 | 10.0 | 17.0 | 0.00 | 0.00 | 0.00 | 65 | 1008.2 |
| 20260506141534 | 68 | 165 | 6.0 | 19.0 | 0.00 | 0.00 | 0.00 | 66 | 1008.3 |
| 20260506140032 | 68 | 238 | 6.0 | 19.0 | 0.00 | 0.00 | 0.00 | 68 | 1008.4 |
| 20260506134514 | 67 | 240 | 5.0 | 18.0 | 0.00 | 0.00 | 0.00 | 69 | 1008.7 |
| 20260506133014 | 66 | 227 | 9.0 | 17.0 | 0.00 | 0.00 | 0.00 | 69 | 1008.9 |
| 20260506131557 | 66 | 246 | 9.0 | 17.0 | 0.00 | 0.00 | 0.00 | 70 | 1008.8 |
| 20260506130055 | 66 | 252 | 6.0 | 14.0 | 0.00 | 0.00 | 0.00 | 70 | 1008.9 |
| 20260506124540 | 65 | 222 | 7.0 | 15.0 | 0.00 | 0.00 | 0.00 | 72 | 1008.8 |
| 20260506123042 | 64 | 240 | 6.0 | 12.0 | 0.00 | 0.00 | 0.00 | 73 | 1009.2 |
| 20260506121519 | 64 | 202 | 5.0 | 10.0 | 0.00 | 0.00 | 0.00 | 73 | 1008.9 |
| 20260506120027 | 63 | 205 | 4.0 | 12.0 | 0.00 | 0.00 | 0.00 | 74 | 1009.0 |
| 20260506114600 | 63 | 237 | 4.0 | 15.0 | 0.00 | 0.00 | 0.00 | 75 | 1009.3 |
| 20260506113109 | 63 | 225 | 6.0 | 12.0 | 0.00 | 0.00 | 0.00 | 75 | 1009.4 |
| 20260506111541 | 62 | 181 | 6.0 | 18.0 | 0.00 | 0.00 | 0.00 | 76 | 1009.2 |
| 20260506110040 | 62 | 254 | 3.0 | 14.0 | 0.00 | 0.00 | 0.00 | 76 | 1009.3 |
| 20260506104521 | 62 | 199 | 4.0 | 11.0 | 0.00 | 0.00 | 0.00 | 76 | 1009.2 |
| 20260506103027 | 62 | 182 | 3.0 | 11.0 | 0.00 | 0.00 | 0.00 | 75 | 1009.4 |
| 20260506101502 | 62 | 192 | 5.0 | 13.0 | 0.00 | 0.00 | 0.00 | 75 | 1009.2 |
| 20260506100059 | 62 | 245 | 5.0 | 12.0 | 0.00 | 0.00 | 0.00 | 74 | 1009.1 |
| 20260506094546 | 62 | 206 | 7.0 | 11.0 | 0.00 | 0.00 | 0.00 | 74 | 1009.2 |
| 20260506093045 | 62 | 208 | 5.0 | 15.0 | 0.00 | 0.00 | 0.00 | 73 | 1009.1 |
| 20260506091517 | 62 | 179 | 4.0 | 14.0 | 0.00 | 0.00 | 0.00 | 73 | 1009.1 |
| 20260506090014 | 62 | 228 | 5.0 | 12.0 | 0.00 | 0.00 | 0.00 | 72 | 1009.1 |
| 20260506084555 | 63 | 292 | 3.0 | 12.0 | 0.00 | 0.00 | 0.00 | 72 | 1009.1 |
| 20260506083053 | 63 | 252 | 3.0 | 11.0 | 0.00 | 0.00 | 0.00 | 71 | 1009.0 |
| 20260506081534 | 63 | 221 | 3.0 | 10.0 | 0.00 | 0.00 | 0.00 | 71 | 1009.0 |
| 20260506073010 | 64 | 217 | 4.0 | 12.0 | 0.00 | 0.00 | 0.00 | 68 | 1008.7 |
| 20260506071553 | 64 | 196 | 4.0 | 9.0 | 0.00 | 0.00 | 0.00 | 67 | 1008.5 |
| 20260506070108 | 64 | 181 | 4.0 | 12.0 | 0.00 | 0.00 | 0.00 | 66 | 1008.4 |
| 20260506061508 | 65 | 220 | 5.0 | 10.0 | 0.00 | 0.00 | 0.00 | 63 | 1008.4 |
| 20260506044517 | 65 | 227 | 3.0 | 13.0 | 0.00 | 0.00 | 0.00 | 61 | 1008.7 |
| 20260506043014 | 65 | 231 | 3.0 | 14.0 | 0.00 | 0.00 | 0.00 | 60 | 1008.8 |
| 20260506041554 | 65 | 279 | 3.0 | 13.0 | 0.00 | 0.00 | 0.00 | 59 | 1008.9 |
| 20260506040049 | 66 | 242 | 7.0 | 12.0 | 0.00 | 0.00 | 0.00 | 59 | 1008.8 |
| 20260506034529 | 66 | 269 | 7.0 | 16.0 | 0.00 | 0.00 | 0.00 | 58 | 1008.7 |
| 20260506033027 | 66 | 251 | 8.0 | 13.0 | 0.00 | 0.00 | 0.00 | 57 | 1008.7 |
| 20260506031513 | 67 | 212 | 5.0 | 15.0 | 0.00 | 0.00 | 0.00 | 56 | 1008.7 |
| 20260506030007 | 67 | 236 | 5.0 | 20.0 | 0.00 | 0.00 | 0.00 | 56 | 1008.7 |
| 20260506024545 | 67 | 221 | 2.0 | 7.0 | 0.00 | 0.00 | 0.00 | 57 | 1008.7 |
| 20260506023044 | 67 | 248 | 4.0 | 10.0 | 0.00 | 0.00 | 0.00 | 56 | 1008.8 |
| 20260506021526 | 67 | 217 | 4.0 | 7.0 | 0.00 | 0.00 | 0.00 | 56 | 1008.9 |
| 20260506020023 | 68 | 180 | 3.0 | 11.0 | 0.00 | 0.00 | 0.00 | 55 | 1009.0 |
| 20260506014505 | 68 | 247 | 6.0 | 10.0 | 0.00 | 0.00 | 0.00 | 55 | 1008.9 |
| 20260506013002 | 68 | 265 | 8.0 | 18.0 | 0.00 | 0.00 | 0.00 | 55 | 1008.6 |
| 20260506011543 | 68 | 208 | 6.0 | 15.0 | 0.00 | 0.00 | 0.00 | 54 | 1008.0 |
| 20260506010038 | 69 | 226 | 5.0 | 13.0 | 0.00 | 0.00 | 0.00 | 53 | 1007.9 |
| 20260506004517 | 70 | 216 | 8.0 | 18.0 | 0.00 | 0.00 | 0.00 | 52 | 1007.6 |
| 20260506003013 | 70 | 251 | 7.0 | 15.0 | 0.00 | 0.00 | 0.00 | 51 | 1007.3 |
| 20260506001559 | 71 | 173 | 9.0 | 18.0 | 0.00 | 0.00 | 0.00 | 50 | 1007.0 |
| 20260506000050 | 72 | 250 | 9.0 | 17.0 | 0.00 | 0.00 | 0.00 | 49 | 1006.7 |
| 20260505234550 | 72 | 201 | 6.0 | 13.0 | 0.00 | 0.00 | 0.00 | 48 | 1006.3 |
| 20260505233021 | 73 | 183 | 8.0 | 19.0 | 0.00 | 0.00 | 0.00 | 48 | 1006.2 |
| 20260505231504 | 74 | 173 | 7.0 | 17.0 | 0.00 | 0.00 | 0.00 | 47 | 1006.1 |
| 20260505230058 | 74 | 242 | 7.0 | 25.0 | 0.00 | 0.00 | 0.00 | 46 | 1005.9 |
| 20260505224535 | 75 | 244 | 9.0 | 18.0 | 0.00 | 0.00 | 0.00 | 45 | 1005.4 |
| 20260505223035 | 76 | 199 | 11.0 | 21.0 | 0.00 | 0.00 | 0.00 | 44 | 1005.2 |
| 20260505221513 | 76 | 212 | 10.0 | 23.0 | 0.00 | 0.00 | 0.00 | 43 | 1005.1 |
| 20260505220012 | 76 | 203 | 8.0 | 20.0 | 0.00 | 0.00 | 0.00 | 43 | 1004.9 |
| 20260505214616 | 77 | 185 | 11.0 | 22.0 | 0.00 | 0.00 | 0.00 | 43 | 1004.8 |
| 20260505213054 | 77 | 202 | 9.0 | 22.0 | 0.00 | 0.00 | 0.00 | 42 | 1004.7 |
| 20260505211611 | 78 | 177 | 7.0 | 24.0 | 0.00 | 0.00 | 0.00 | 42 | 1004.5 |